Hourly Data Report for May 15, 2022

MUSKOKA
ONTARIO
Current Station Operator: NAVCAN

44°58'29.000" N
79°18'12.000" W
281.90 m
6115529
71532
YQA

Download Data

Hourly Data (May 2022)
Hourly Data Report for May 15, 2022
TIME
LST
Temp Definition
°C
Dew Point Definition
°C
Rel Hum Definition
%
Precip. Amount Definition
mm

Wind Dir Definition
10's deg

Wind Spd Definition
km/h
Visibility Definition
km
Stn Press Definition
kPa
Hmdx Definition


Wind Chill Definition


Weather Definition


00:00 16.1 13.8 86 0.0   0 16.1 97.72     LegendNANA
01:00 15.0 13.6 91 0.0 LegendMM 4 16.1 97.68     LegendNANA
02:00 15.1 14.0 93 0.0 LegendMM 5 16.1 97.66     LegendNANA
03:00 15.4 14.5 94 0.0 23 5 14.5 97.68     Moderate Rain
04:00 15.3 15.0 98 2.8 10 4 4.8 97.67     Fog
05:00 14.7 14.6 99 0.0   0 1.2 97.67     Fog
06:00 15.3 15.3 100 0.0   0 4.8 97.73     Fog
07:00 17.0 16.7 98 0.0   0 16.1 97.75     LegendNANA
08:00 18.4 16.1 86 0.0 26 13 16.1 97.76     LegendNANA
09:00 19.6 14.8 73 0.0 28 13 16.1 97.75     LegendNANA
10:00 21.0 15.4 70 0.0 29 17 16.1 97.74 25   LegendNANA
11:00 22.2 15.4 65 0.0 29 11 16.1 97.70 26   LegendNANA
12:00 22.8 14.3 58 0.0 29 11 16.1 97.66 26   LegendNANA
13:00 24.0 14.5 55 0.0 30 18 16.1 97.59 28   LegendNANA
14:00 25.3 14.1 49 0.0 26 11 16.1 97.52 29   LegendNANA
15:00 25.7 12.5 43 0.0 30 13 16.1 97.48 28   LegendNANA
16:00 24.5 10.4 41 0.0 28 15 16.1 97.46 26   LegendNANA
17:00 23.7 9.5 40 0.0 30 22 16.1 97.49 25   LegendNANA
18:00 23.0 11.5 48 0.0 31 11 16.1 97.45 25   LegendNANA
19:00 20.8 13.6 63 0.0 30 8 16.1 97.43     LegendNANA
20:00 16.6 13.7 83 0.0   0 16.1 97.40     LegendNANA
21:00 16.9 13.7 81 0.0 29 8 16.1 97.45     LegendNANA
22:00 16.2 13.8 85 0.0 29 5 16.1 97.49     LegendNANA
23:00 14.0 13.1 94 0.0   0 16.1 97.43     LegendNANA

Notes on Data Quality.

Legend

  • E = Estimated
  • M = Missing
  • NA = Not Available*
  • [empty] = Indicates an unobserved value
Date modified: